CW2148 Killingsworth CT US current weather conditions

sailwx.info

Wind from 321

Air temperature 11.1° C
Dewpoint 2.9° C

Last reported at 2020-Oct-28 04:00 UTC.
Time now 2020-Oct-28 04:49 UTC

Location: N 41°22' W 072°34'.
View on Google Maps.

See reports from other nearby stations

  
Tides and Currents Weather Stations Pressure Air Temp Water Temp Dewpoint Dewpoint Depression Visibility Wind Speed Wind Dir Waves Ship Positions
date/time (UTC)wind fromknots sea level pressurealtimeterstation pressurevisibilityair tempwater tempwave heightnotes
2020-Oct-28 04:00 321 11.1
2020-Oct-28 03:00 321 11.1
2020-Oct-28 02:01 325 11.7
2020-Oct-28 01:00 334 2 gusting 2 12.2
2020-Oct-28 00:00 334 12.2
2020-Oct-27 23:00 352 2 gusting 3 12.8
2020-Oct-27 22:00 032 2 gusting 3 13.3
2020-Oct-27 21:00 14.4
2020-Oct-27 20:00 013 0 gusting 3 15.0
2020-Oct-27 19:00 039 16.1
2020-Oct-27 18:00 011 3 gusting 7 16.1
2020-Oct-27 17:00 017 3 gusting 5 15.6
2020-Oct-27 16:00 328 2 gusting 3 13.9
2020-Oct-27 15:00 009 13.9
2020-Oct-27 14:00 273 11.7
2020-Oct-27 13:00 272 11.7
2020-Oct-27 12:00 268 11.7
2020-Oct-27 11:00 327 11.7
2020-Oct-27 10:00 299 12.8
2020-Oct-27 09:00 278 13.9
2020-Oct-27 08:00 233 14.4
2020-Oct-27 07:00 230 14.4
2020-Oct-27 06:00 133 14.4
2020-Oct-27 05:00 100 13.3
2020-Oct-27 04:00 100 13.3
2020-Oct-27 03:00 100 13.3
2020-Oct-27 02:00 100 12.8
2020-Oct-27 01:00 094 3 gusting 4 12.8
2020-Oct-27 00:00 013 13.3
2020-Oct-26 23:00 120 13.3
2020-Oct-26 22:00 119 13.3
2020-Oct-26 21:00 005 13.3
2020-Oct-26 20:01 109 0 gusting 5 13.3
2020-Oct-26 19:00 102 2 gusting 5 13.3
2020-Oct-26 18:00 088 12.8
2020-Oct-26 17:00 023 12.8
2020-Oct-26 16:00 359 12.2
2020-Oct-26 15:00 031 11.7
2020-Oct-26 14:00 034 11.1
2020-Oct-26 13:00 066 10.0
2020-Oct-26 12:00 111 9.4
2020-Oct-26 11:00 076 9.4
2020-Oct-26 10:00 351 8.9
2020-Oct-26 09:00 028 8.9
2020-Oct-26 08:00 003 4 gusting 6 8.3
2020-Oct-26 07:00 027 8.3
2020-Oct-26 06:00 028 5 gusting 6 7.8
2020-Oct-26 05:00 134 8.3
2020-Oct-26 04:00 056 2 gusting 4 9.4